DW1814 Weather Reports


Display with metric or nautical units.
time (UTC)temp
F
wind
direction
speed
MPH
gust
MPH
rain 1hr
in
rain 24hr
in
rain mn
in
humidity
%
barometer
mb
20260509115218 52 116 1.0 2.0 0.00 0.00 0.00 87 1002.5
20260509114716 52 68 1.0 2.0 0.00 0.00 0.00 87 1002.6
20260509114214 52 78 0.0 2.0 0.00 0.00 0.00 88 1002.4
20260509113713 52 132 1.0 2.0 0.00 0.00 0.00 88 1002.3
20260509113210 52 110 0.0 1.0 0.00 0.00 0.00 88 1002.3
20260509112706 52 107 0.0 3.0 0.00 0.00 0.00 88 1002.3
20260509112203 52 38 0.0 2.0 0.00 0.00 0.00 89 1002.3
20260509111700 52 83 0.0 2.0 0.00 0.00 0.00 88 1002.0
20260509111157 52 162 0.0 3.0 0.00 0.00 0.00 88 1002.1
20260509110654 52 140 0.0 2.0 0.00 0.00 0.00 88 1001.8
20260509110151 52 116 0.0 2.0 0.00 0.00 0.00 88 1001.8
20260509105649 52 151 2.0 2.0 0.00 0.00 0.00 88 1002.1
20260509105146 52 48 0.0 2.0 0.00 0.00 0.00 87 1001.9
20260509104643 52 121 0.0 2.0 0.00 0.00 0.00 87 1001.8
20260509104140 52 107 0.0 2.0 0.00 0.00 0.00 87 1001.8
20260509103638 52 135 0.0 2.0 0.00 0.00 0.00 87 1002.0
20260509103136 52 53 0.0 2.0 0.00 0.00 0.00 87 1002.0
20260509102633 52 122 0.0 2.0 0.00 0.00 0.00 87 1002.0
20260509102130 52 107 0.0 1.0 0.00 0.00 0.00 87 1002.2
20260509101626 52 89 0.0 2.0 0.00 0.00 0.00 87 1002.0
20260509101123 53 49 0.0 2.0 0.00 0.00 0.00 87 1002.2
20260509100620 53 133 0.0 1.0 0.00 0.00 0.00 87 1001.8
20260509100118 52 108 0.0 1.0 0.00 0.00 0.00 87 1001.8
20260509095614 52 80 0.0 2.0 0.00 0.00 0.00 88 1001.8
20260509095111 52 116 0.0 2.0 0.00 0.00 0.00 88 1001.7
20260509094607 52 144 1.0 2.0 0.00 0.00 0.00 88 1001.9
20260509094105 52 152 0.0 3.0 0.00 0.00 0.00 88 1001.9
20260509093604 52 118 2.0 2.0 0.00 0.00 0.00 88 1002.0
20260509093100 52 109 2.0 2.0 0.00 0.00 0.00 88 1001.8
20260509092558 52 127 2.0 2.0 0.00 0.00 0.00 88 1001.9
20260509092057 52 164 0.0 3.0 0.00 0.00 0.00 87 1002.0
20260509091554 53 151 0.0 3.0 0.00 0.00 0.00 87 1002.1
20260509091050 53 125 0.0 2.0 0.00 0.00 0.00 87 1002.2
20260509090548 53 182 0.0 2.0 0.00 0.00 0.00 87 1002.4
20260509090045 53 114 0.0 2.0 0.00 0.00 0.00 87 1002.4
20260509085542 53 119 0.0 3.0 0.00 0.00 0.00 87 1002.4
20260509085038 52 120 0.0 2.0 0.00 0.00 0.00 88 1002.6
20260509084535 52 122 1.0 2.0 0.00 0.00 0.00 88 1002.4
20260509084032 52 161 1.0 2.0 0.00 0.00 0.00 87 1002.4
20260509083530 52 306 0.0 2.0 0.00 0.00 0.00 87 1002.5
20260509083026 52 141 0.0 2.0 0.00 0.00 0.00 87 1002.4
20260509082524 52 154 1.0 2.0 0.00 0.00 0.00 87 1002.5
20260509082021 53 83 1.0 3.0 0.00 0.00 0.00 87 1002.5
20260509081518 53 94 1.0 3.0 0.00 0.00 0.00 87 1002.6
20260509081015 53 126 0.0 2.0 0.00 0.00 0.00 86 1002.4
20260509080513 53 106 0.0 3.0 0.00 0.00 0.00 86 1002.5
20260509080011 53 116 1.0 2.0 0.00 0.00 0.00 86 1002.5
20260509075508 53 119 0.0 2.0 0.00 0.00 0.00 86 1002.5
20260509075005 53 110 0.0 2.0 0.00 0.00 0.00 85 1002.5
20260509074502 53 89 0.0 2.0 0.00 0.00 0.00 85 1002.4
20260509073959 53 119 0.0 2.0 0.00 0.00 0.00 85 1002.7
20260509073455 53 129 0.0 2.0 0.00 0.00 0.00 85 1002.5
20260509072952 53 156 1.0 2.0 0.00 0.00 0.00 85 1002.7
20260509072449 53 161 1.0 3.0 0.00 0.00 0.00 85 1002.9
20260509071945 53 124 0.0 2.0 0.00 0.00 0.00 84 1002.8
20260509071442 53 142 1.0 3.0 0.00 0.00 0.00 84 1003.1
20260509070940 54 103 1.0 2.0 0.00 0.00 0.00 83 1003.1
20260509070436 54 119 0.0 1.0 0.00 0.00 0.00 84 1003.2
20260509065932 54 87 2.0 2.0 0.00 0.00 0.00 84 1003.4
20260509065428 54 160 1.0 2.0 0.00 0.00 0.00 84 1003.2
20260509064924 53 156 2.0 3.0 0.00 0.00 0.00 84 1003.2
20260509064422 54 232 0.0 2.0 0.00 0.00 0.00 84 1003.5
20260509063920 53 130 1.0 2.0 0.00 0.00 0.00 84 1003.7
20260509063415 53 94 0.0 2.0 0.00 0.00 0.00 85 1003.6
20260509062913 54 70 1.0 2.0 0.00 0.00 0.00 84 1003.7
20260509062410 54 133 2.0 2.0 0.00 0.00 0.00 85 1003.9
20260509061907 54 173 0.0 2.0 0.00 0.00 0.00 85 1003.9
20260509061405 54 154 0.0 2.0 0.00 0.00 0.00 84 1003.9
20260509060901 54 130 0.0 2.0 0.00 0.00 0.00 85 1003.7
20260509060359 54 138 1.0 2.0 0.00 0.00 0.00 84 1004.0
20260509055854 54 80 0.0 2.0 0.00 0.00 0.00 84 1004.2
20260509055349 54 87 1.0 1.0 0.00 0.00 0.00 84 1004.0
20260509054847 54 137 1.0 2.0 0.00 0.00 0.00 83 1004.1
20260509054343 54 143 1.0 2.0 0.00 0.00 0.00 83 1004.0
20260509053842 54 125 2.0 2.0 0.00 0.00 0.00 82 1004.1
20260509053339 55 35 0.0 2.0 0.00 0.00 0.00 82 1004.2
20260509052837 55 76 0.0 2.0 0.00 0.00 0.00 82 1004.2
20260509052334 55 97 0.0 2.0 0.00 0.00 0.00 81 1004.1
20260509051832 55 183 0.0 3.0 0.00 0.00 0.00 81 1004.0
20260509051330 55 79 0.0 2.0 0.00 0.00 0.00 80 1003.9
20260509050826 55 123 1.0 2.0 0.00 0.00 0.00 79 1004.1
20260509050323 55 157 2.0 2.0 0.00 0.00 0.00 78 1004.1
20260509045820 55 151 0.0 2.0 0.00 0.00 0.00 78 1003.9
20260509045317 55 124 0.0 2.0 0.00 0.00 0.00 77 1003.7
20260509044814 55 142 0.0 2.0 0.00 0.00 0.00 76 1003.9
20260509044311 56 135 2.0 2.0 0.00 0.00 0.00 76 1004.1
20260509043808 56 145 0.0 2.0 0.00 0.00 0.00 75 1003.9
20260509043303 56 154 1.0 3.0 0.00 0.00 0.00 74 1003.9
20260509042800 56 89 0.0 2.0 0.00 0.00 0.00 74 1003.7
20260509042256 56 134 2.0 2.0 0.00 0.00 0.00 73 1003.9
20260509041753 56 122 2.0 2.0 0.00 0.00 0.00 72 1003.9
20260509041250 56 136 2.0 3.0 0.00 0.00 0.00 72 1004.2
20260509040749 56 140 2.0 3.0 0.00 0.00 0.00 72 1004.1
20260509040245 56 122 2.0 3.0 0.00 0.00 0.00 71 1004.1
20260509035742 56 76 0.0 2.0 0.00 0.00 0.00 71 1004.1
20260509035239 56 147 0.0 2.0 0.00 0.00 0.00 71 1004.0
20260509034736 56 138 1.0 2.0 0.00 0.00 0.00 71 1004.1
20260509034234 56 155 1.0 2.0 0.00 0.00 0.00 71 1004.1
20260509033730 55 190 2.0 4.0 0.00 0.00 0.00 71 1004.0
20260509033227 55 143 1.0 2.0 0.00 0.00 0.00 71 1004.4
20260509032725 55 143 1.0 3.0 0.00 0.00 0.00 71 1004.1
20260509032221 54 133 1.0 2.0 0.00 0.00 0.00 72 1004.2
20260509031719 54 122 2.0 2.0 0.00 0.00 0.00 72 1004.4
20260509031216 54 114 1.0 2.0 0.00 0.00 0.00 72 1004.3
20260509030714 54 100 2.0 2.0 0.00 0.00 0.00 72 1004.4
20260509030211 54 122 0.0 2.0 0.00 0.00 0.00 72 1004.2
20260509025707 54 89 1.0 2.0 0.00 0.00 0.00 72 1004.2
20260509025203 54 87 1.0 2.0 0.00 0.00 0.00 72 1004.3
20260509024659 55 89 1.0 2.0 0.00 0.00 0.00 72 1004.4
20260509024155 55 98 2.0 2.0 0.00 0.00 0.00 71 1004.3
20260509023653 55 92 2.0 2.0 0.00 0.00 0.00 71 1004.2
20260509023150 55 55 1.0 2.0 0.00 0.00 0.00 71 1004.6
20260509022646 55 59 1.0 2.0 0.00 0.00 0.00 70 1004.3
20260509022144 56 85 1.0 2.0 0.00 0.00 0.00 70 1004.4
20260509021640 56 59 2.0 2.0 0.00 0.00 0.00 69 1004.5
20260509021138 56 50 0.0 2.0 0.00 0.00 0.00 69 1004.3
20260509020636 56 89 2.0 2.0 0.00 0.00 0.00 69 1004.2
20260509020132 56 76 0.0 2.0 0.00 0.00 0.00 68 1004.4
20260509015631 56 76 1.0 2.0 0.00 0.00 0.00 68 1004.3
20260509015129 57 72 0.0 2.0 0.00 0.00 0.00 67 1004.5
20260509014625 57 91 1.0 2.0 0.00 0.00 0.00 67 1004.2
20260509014121 57 76 2.0 2.0 0.00 0.00 0.00 67 1004.3
20260509013619 57 72 2.0 2.0 0.00 0.00 0.00 67 1004.4
20260509013114 58 79 1.0 2.0 0.00 0.00 0.00 65 1004.2
20260509012611 58 49 1.0 2.0 0.00 0.00 0.00 64 1004.4
20260509012108 58 127 0.0 2.0 0.00 0.00 0.00 64 1004.3
20260509011606 59 78 2.0 2.0 0.00 0.00 0.00 64 1004.5
20260509011102 59 111 2.0 2.0 0.00 0.00 0.00 63 1004.3
20260509010600 59 71 1.0 3.0 0.00 0.00 0.00 63 1004.5
20260509010057 59 70 1.0 3.0 0.00 0.00 0.00 62 1004.4
20260509005554 59 100 1.0 3.0 0.00 0.00 0.00 61 1004.4
20260509005050 60 80 2.0 2.0 0.00 0.00 0.00 61 1004.3
20260509004547 60 91 2.0 2.0 0.00 0.00 0.00 60 1004.2
20260509004043 60 83 1.0 3.0 0.00 0.00 0.00 60 1004.3
20260509003542 60 80 0.0 5.0 0.00 0.00 0.00 59 1004.2
20260509003039 61 51 4.0 4.0 0.00 0.00 0.00 59 1004.2
20260509002536 61 39 2.0 2.0 0.00 0.00 0.00 59 1004.1
20260509002034 61 121 1.0 4.0 0.00 0.00 0.00 59 1004.3
20260509001531 62 66 2.0 4.0 0.00 0.00 0.00 58 1004.3
20260509001027 62 61 2.0 4.0 0.00 0.00 0.00 58 1004.5
20260509000525 62 128 2.0 4.0 0.00 0.00 0.00 57 1004.7
20260509000021 63 77 0.0 2.0 0.00 0.00 0.00 56 1004.5
20260508235519 63 89 0.0 2.0 0.00 0.00 0.00 56 1004.5
20260508235015 63 41 3.0 4.0 0.00 0.00 0.00 55 1004.5
20260508234512 64 171 2.0 5.0 0.00 0.00 0.00 55 1004.5
20260508234009 64 41 3.0 3.0 0.00 0.00 0.00 54 1004.6
20260508233509 64 156 2.0 4.0 0.00 0.00 0.00 52 1004.8
20260508233006 65 193 2.0 3.0 0.00 0.00 0.00 51 1004.6
20260508232502 65 89 0.0 2.0 0.00 0.00 0.00 48 1004.7
20260508231959 66 40 0.0 2.0 0.00 0.00 0.00 43 1004.7
20260508231457 66 48 0.0 1.0 0.00 0.00 0.00 43 1004.9
20260508230954 67 36 0.0 1.0 0.00 0.00 0.00 41 1004.8
20260508230450 68 142 0.0 2.0 0.00 0.00 0.00 41 1004.7
20260508225947 68 157 0.0 2.0 0.00 0.00 0.00 39 1004.7
20260508225444 69 185 0.0 2.0 0.00 0.00 0.00 38 1005.0
20260508224941 69 146 0.0 2.0 0.00 0.00 0.00 38 1004.7
20260508224439 69 269 0.0 3.0 0.00 0.00 0.00 37 1004.8
20260508223936 70 287 0.0 2.0 0.00 0.00 0.00 37 1005.1
20260508223434 70 166 0.0 2.0 0.00 0.00 0.00 39 1004.8
20260508222931 69 99 0.0 2.0 0.00 0.00 0.00 37 1004.9
20260508222428 70 181 2.0 4.0 0.00 0.00 0.00 37 1004.8
20260508221925 70 281 2.0 3.0 0.00 0.00 0.00 37 1004.9
20260508221420 69 201 1.0 3.0 0.00 0.00 0.00 41 1004.6
20260508220917 68 196 2.0 2.0 0.00 0.00 0.00 39 1004.8
20260508220414 68 109 0.0 2.0 0.00 0.00 0.00 39 1005.1
20260508215910 69 269 0.0 3.0 0.00 0.00 0.00 38 1005.0
20260508215407 67 255 2.0 3.0 0.00 0.00 0.00 43 1005.2
20260508214903 66 125 1.0 2.0 0.00 0.00 0.00 42 1005.1
20260508214401 65 37 0.0 2.0 0.00 0.00 0.00 45 1005.4
20260508213857 64 97 2.0 2.0 0.00 0.00 0.00 40 1005.0
20260508213354 65 147 0.0 2.0 0.00 0.00 0.00 40 1005.3
20260508212850 66 45 4.0 4.0 0.00 0.00 0.00 38 1005.2
20260508212347 66 138 2.0 4.0 0.00 0.00 0.00 38 1005.2
20260508211842 66 61 3.0 4.0 0.00 0.00 0.00 39 1005.3
20260508211338 65 94 1.0 2.0 0.00 0.00 0.00 39 1005.3
20260508210836 66 55 0.0 6.0 0.00 0.00 0.00 36 1005.4
20260508210332 67 1 1.0 3.0 0.00 0.00 0.00 38 1005.3
20260508205829 66 107 2.0 5.0 0.00 0.00 0.00 38 1005.5
20260508205326 65 37 0.0 5.0 0.00 0.00 0.00 37 1005.5
20260508204822 66 106 1.0 8.0 0.00 0.00 0.00 35 1005.5
20260508204319 67 317 0.0 6.0 0.00 0.00 0.00 34 1005.4
20260508203815 66 28 2.0 2.0 0.00 0.00 0.00 36 1005.6
20260508203311 66 71 3.0 5.0 0.00 0.00 0.00 33 1005.7
20260508202807 66 351 1.0 2.0 0.00 0.00 0.00 35 1005.8
20260508202307 67 15 2.0 4.0 0.00 0.00 0.00 32 1005.8
20260508201802 68 26 4.0 4.0 0.00 0.00 0.00 32 1005.8
20260508201258 67 133 0.0 3.0 0.00 0.00 0.00 31 1006.0
20260508200755 67 157 0.0 3.0 0.00 0.00 0.00 33 1006.2
20260508200251 67 75 3.0 4.0 0.00 0.00 0.00 31 1006.1
20260508195747 68 79 2.0 4.0 0.00 0.00 0.00 30 1006.1
20260508195244 66 27 2.0 2.0 0.00 0.00 0.00 32 1006.3
20260508194741 67 285 1.0 2.0 0.00 0.00 0.00 32 1006.3
20260508194238 69 38 0.0 6.0 0.00 0.00 0.00 29 1006.3
20260508193735 70 179 0.0 3.0 0.00 0.00 0.00 30 1006.4
20260508193231 69 180 1.0 2.0 0.00 0.00 0.00 32 1006.5
20260508192728 68 166 0.0 4.0 0.00 0.00 0.00 33 1006.5
20260508192225 68 203 0.0 3.0 0.00 0.00 0.00 29 1006.5
20260508191722 67 25 4.0 4.0 0.00 0.00 0.00 30 1006.5
20260508191219 67 44 3.0 4.0 0.00 0.00 0.00 29 1006.7
20260508190716 68 338 3.0 4.0 0.00 0.00 0.00 30 1006.6
20260508190213 68 0 4.0 5.0 0.00 0.00 0.00 33 1006.8
20260508185709 68 310 1.0 3.0 0.00 0.00 0.00 29 1007.0
20260508185207 69 129 2.0 4.0 0.00 0.00 0.00 28 1007.1
20260508184704 68 188 2.0 3.0 0.00 0.00 0.00 30 1007.1
20260508184201 66 181 2.0 3.0 0.00 0.00 0.00 35 1007.0
20260508183658 66 335 4.0 5.0 0.00 0.00 0.00 30 1007.1
20260508183154 69 105 2.0 6.0 0.00 0.00 0.00 28 1007.3
20260508182650 69 152 0.0 2.0 0.00 0.00 0.00 30 1007.4
20260508182147 69 287 1.0 2.0 0.00 0.00 0.00 33 1007.4
20260508181642 69 157 0.0 2.0 0.00 0.00 0.00 29 1007.3
20260508181140 68 80 1.0 3.0 0.00 0.00 0.00 31 1007.5
20260508180636 67 64 2.0 2.0 0.00 0.00 0.00 30 1007.5
20260508180133 65 29 2.0 3.0 0.00 0.00 0.00 31 1007.5
20260508175630 66 334 3.0 4.0 0.00 0.00 0.00 32 1007.6
20260508175126 67 100 2.0 4.0 0.00 0.00 0.00 34 1007.5
20260508174624 67 187 2.0 3.0 0.00 0.00 0.00 31 1007.8
20260508174121 67 223 2.0 4.0 0.00 0.00 0.00 32 1007.9
20260508173618 66 308 1.0 2.0 0.00 0.00 0.00 36 1007.9
20260508173114 66 142 0.0 3.0 0.00 0.00 0.00 38 1008.1
20260508172611 66 67 2.0 5.0 0.00 0.00 0.00 35 1008.1
20260508172107 66 307 0.0 3.0 0.00 0.00 0.00 38 1008.4
20260508171604 66 271 2.0 2.0 0.00 0.00 0.00 32 1008.2
20260508171100 65 0 0.0 3.0 0.00 0.00 0.00 34 1008.4
20260508170558 64 37 3.0 5.0 0.00 0.00 0.00 35 1008.5
20260508170055 65 36 4.0 4.0 0.00 0.00 0.00 36 1008.5
20260508165552 65 257 0.0 3.0 0.00 0.00 0.00 31 1008.8
20260508165049 65 130 2.0 2.0 0.00 0.00 0.00 35 1008.8
20260508164545 65 89 0.0 2.0 0.00 0.00 0.00 32 1009.0
20260508164042 65 147 0.0 3.0 0.00 0.00 0.00 32 1009.1
20260508163540 64 72 0.0 5.0 0.00 0.00 0.00 35 1009.2
20260508163036 64 212 0.0 2.0 0.00 0.00 0.00 34 1009.3
20260508162533 62 304 0.0 3.0 0.00 0.00 0.00 32 1009.3
20260508162031 63 174 0.0 2.0 0.00 0.00 0.00 31 1009.5
20260508161527 63 52 2.0 6.0 0.00 0.00 0.00 33 1009.2
20260508161024 63 352 0.0 1.0 0.00 0.00 0.00 34 1009.3
20260508160523 62 23 1.0 6.0 0.00 0.00 0.00 33 1009.6
20260508160020 64 80 3.0 5.0 0.00 0.00 0.00 31 1009.3
20260508155516 64 191 0.0 3.0 0.00 0.00 0.00 31 1009.6
20260508155014 62 65 1.0 4.0 0.00 0.00 0.00 33 1009.6
20260508154511 63 15 3.0 4.0 0.00 0.00 0.00 31 1009.5
20260508154007 63 39 3.0 6.0 0.00 0.00 0.00 28 1009.5
20260508153504 62 61 2.0 3.0 0.00 0.00 0.00 39 1009.6
20260508153001 62 344 1.0 2.0 0.00 0.00 0.00 36 1009.8
20260508152458 63 262 2.0 2.0 0.00 0.00 0.00 35 1009.6
20260508151953 62 55 1.0 4.0 0.00 0.00 0.00 39 1009.7
20260508151450 63 91 2.0 4.0 0.00 0.00 0.00 39 1009.7
20260508150947 64 208 0.0 2.0 0.00 0.00 0.00 35 1009.7
20260508150444 64 85 2.0 2.0 0.00 0.00 0.00 41 1009.5
20260508145939 64 63 0.0 3.0 0.00 0.00 0.00 40 1009.7
20260508145436 62 97 2.0 3.0 0.00 0.00 0.00 45 1009.9
20260508144933 62 75 3.0 4.0 0.00 0.00 0.00 47 1009.8
20260508144431 59 69 2.0 3.0 0.00 0.00 0.00 54 1009.9
20260508143928 59 27 3.0 3.0 0.00 0.00 0.00 57 1009.9
20260508143425 57 69 3.0 4.0 0.00 0.00 0.00 58 1010.1
20260508142921 59 72 3.0 4.0 0.00 0.00 0.00 56 1009.8
20260508142419 59 105 2.0 3.0 0.00 0.00 0.00 59 1009.7
20260508141915 59 72 2.0 6.0 0.00 0.00 0.00 58 1010.1
20260508141412 57 84 1.0 2.0 0.00 0.00 0.00 65 1009.9
20260508140909 56 80 2.0 4.0 0.00 0.00 0.00 64 1010.0
20260508140406 56 62 1.0 2.0 0.00 0.00 0.00 64 1010.0
20260508135902 56 78 1.0 2.0 0.00 0.00 0.00 64 1010.0
20260508135359 55 67 2.0 3.0 0.00 0.00 0.00 67 1009.9
20260508134855 54 85 0.0 2.0 0.00 0.00 0.00 69 1009.9
20260508134352 53 88 3.0 4.0 0.00 0.00 0.00 72 1009.7
20260508133848 54 42 3.0 5.0 0.00 0.00 0.00 70 1009.8
20260508133346 54 48 3.0 4.0 0.00 0.00 0.00 71 1010.0
20260508132843 53 80 2.0 3.0 0.00 0.00 0.00 75 1010.0
20260508132341 51 103 0.0 2.0 0.00 0.00 0.00 80 1009.7
20260508131837 51 79 3.0 4.0 0.00 0.00 0.00 79 1010.0
20260508131333 51 66 2.0 4.0 0.00 0.00 0.00 78 1010.1
20260508130830 50 53 2.0 2.0 0.00 0.00 0.00 84 1010.0
20260508130327 49 71 2.0 3.0 0.00 0.00 0.00 89 1010.0
20260508125823 48 76 3.0 4.0 0.00 0.00 0.00 94 1010.1
20260508125319 47 77 3.0 5.0 0.00 0.00 0.00 99 1010.0
20260508124817 44 58 2.0 2.0 0.00 0.00 0.00 99 1010.3
20260508124314 43 44 2.0 3.0 0.00 0.00 0.00 98 1010.1
20260508123812 44 65 2.0 2.0 0.00 0.00 0.00 99 1010.3
20260508123312 42 60 2.0 2.0 0.00 0.00 0.00 99 1010.2
20260508122806 42 65 0.0 2.0 0.00 0.00 0.00 99 1009.9
20260508122306 41 55 2.0 3.0 0.00 0.00 0.00 99 1009.9
20260508121800 40 61 3.0 3.0 0.00 0.00 0.00 99 1009.8
20260508121259 39 50 2.0 2.0 0.00 0.00 0.00 99 1010.0
20260508120756 39 100 1.0 2.0 0.00 0.00 0.00 99 1010.1
20260508120254 39 80 1.0 2.0 0.00 0.00 0.00 99 1010.0
20260508115751 39 67 2.0 3.0 0.00 0.00 0.00 99 1010.3